カタログに戻る

STARLINK-31632

運用中通信VLEO
NORAD 59326·PAYLOAD·🇺🇸 United States

打ち上げ Mar 25, 2024 から Cape Canaveral Space Force Station

Loading…

次のパス (今後24時間)

TLE

最新Source: CelesTrak SupGP

元期: Sep 14, 2026, 22:31 UTC

1 59326C 24057G   26257.93868056  .00002644  00000+0  95750-4 0  2572
2 59326  42.9998 209.5450 0001374 258.1439  50.8855 15.27583290    14

AllMySatでSTARLINK-31632をリアルタイム追跡

Download on the App Store